FW1310 Weather Reports


time (UTC)temp
F
wind
direction
speed
knots
gust
knots
rain 1hr
in
rain 24hr
in
rain mn
in
humidity
%
barometer
mb
20260904060503 80 159 2.6 7.0 0.00 0.00 0.00 85 996.9
20260904060004 80 162 4.3 8.7 0.00 0.00 0.00 85 997.2
20260904055503 80 174 5.2 7.8 0.00 0.00 0.00 85 997.0
20260904055003 80 181 4.3 8.7 0.00 0.00 0.00 85 997.0
20260904054503 80 183 5.2 7.0 0.00 0.00 0.00 85 997.0
20260904053503 80 206 5.2 11.3 0.00 0.00 0.00 85 997.1
20260904053003 80 172 6.1 11.3 0.00 0.00 0.00 85 997.0
20260904052503 80 186 3.5 7.8 0.00 0.00 0.00 85 996.9
20260904051503 80 211 5.2 7.8 0.00 0.00 0.00 85 996.8
20260904051003 80 172 3.5 7.0 0.00 0.00 0.00 85 996.8
20260904050503 80 168 4.3 7.0 0.00 0.00 0.00 85 996.8
20260904050003 80 156 4.3 7.8 0.00 0.00 0.00 84 996.9
20260904045503 80 173 5.2 11.3 0.00 0.00 0.00 84 996.7
20260904045003 80 176 4.3 7.8 0.00 0.00 0.00 84 996.9
20260904044503 80 126 5.2 7.8 0.00 0.00 0.00 84 996.9
20260904044002 80 186 5.2 7.8 0.00 0.00 0.00 84 996.7
20260904043503 80 162 5.2 7.8 0.00 0.00 0.00 83 996.9
20260904043003 80 168 3.5 7.8 0.00 0.00 0.00 83 996.8
20260904042503 80 157 5.2 11.3 0.00 0.00 0.00 83 996.8
20260904042003 80 191 4.3 11.3 0.00 0.00 0.00 83 996.8
20260904041503 80 156 3.5 5.2 0.00 0.00 0.00 83 996.7
20260904041003 80 177 1.7 10.4 0.00 0.00 0.00 83 996.7
20260904040503 80 180 3.5 7.0 0.00 0.00 0.00 82 996.7
20260904035503 80 196 4.3 8.7 0.00 0.00 0.00 82 996.9
20260904035003 80 220 6.1 7.8 0.00 0.00 0.00 82 996.6
20260904034503 80 201 4.3 8.7 0.00 0.00 0.00 81 996.7
20260904034003 80 144 3.5 10.4 0.00 0.00 0.00 81 996.8
20260904033503 81 151 4.3 11.3 0.00 0.00 0.00 81 996.8
20260904033003 81 146 6.1 11.3 0.00 0.00 0.00 80 996.8
20260904032503 81 202 4.3 10.4 0.00 0.00 0.00 80 996.8
20260904032003 81 200 4.3 10.4 0.00 0.00 0.00 80 996.5
20260904031503 81 169 5.2 10.4 0.00 0.00 0.00 79 996.6
20260904031003 81 173 5.2 11.3 0.00 0.00 0.00 79 996.6
20260904030003 81 130 3.5 10.4 0.00 0.00 0.00 77 996.5
20260904025503 82 201 6.1 13.0 0.00 0.00 0.00 77 996.5
20260904025003 82 185 4.3 7.0 0.00 0.00 0.00 76 996.6
20260904024503 82 158 2.6 6.1 0.00 0.00 0.00 76 996.3
20260904024003 82 128 3.5 6.1 0.00 0.00 0.00 76 996.4
20260904023503 82 193 2.6 6.1 0.00 0.00 0.00 75 996.3
20260904023003 82 175 2.6 5.2 0.00 0.00 0.00 75 996.2
20260904022503 82 139 2.6 7.0 0.00 0.00 0.00 75 996.2
20260904022003 82 150 2.6 7.0 0.00 0.00 0.00 75 996.1
20260904021503 82 141 4.3 7.0 0.00 0.00 0.00 74 996.1
20260904021003 82 52 2.6 5.2 0.00 0.00 0.00 74 996.2
20260904020004 83 16 2.6 10.4 0.00 0.00 0.00 74 996.0
20260904015503 83 202 4.3 7.8 0.00 0.00 0.00 73 995.9
20260904015004 83 179 3.5 7.0 0.00 0.00 0.00 73 995.7
20260904014504 83 175 3.5 7.8 0.00 0.00 0.00 73 995.7
20260904013004 83 182 1.7 6.1 0.00 0.00 0.00 72 995.7
20260904011503 84 86 2.6 4.3 0.00 0.00 0.00 72 995.6
20260904011003 84 107 2.6 4.3 0.00 0.00 0.00 72 995.6
20260904010503 84 143 2.6 7.0 0.00 0.00 0.00 71 995.5
20260904010004 85 142 1.7 6.1 0.00 0.00 0.00 71 995.3
20260904005504 85 173 3.5 6.1 0.00 0.00 0.00 71 995.4
20260904004503 85 146 2.6 7.0 0.00 0.00 0.00 70 995.3
20260904004004 86 182 2.6 7.0 0.00 0.00 0.00 69 995.4
20260904003503 86 152 2.6 7.0 0.00 0.00 0.00 69 995.2
20260904003003 86 152 5.2 8.7 0.00 0.00 0.00 68 995.2
20260904002503 86 153 2.6 7.8 0.00 0.00 0.00 68 995.1
20260904002003 87 198 4.3 7.8 0.00 0.00 0.00 68 995.2
20260904001504 87 171 3.5 7.8 0.00 0.00 0.00 67 995.3
20260904001003 87 235 4.3 13.9 0.00 0.00 0.00 67 995.4
20260904000003 87 184 2.6 6.1 0.00 0.00 0.00 68 995.2
20260903235503 87 178 4.3 7.8 0.00 0.00 0.00 68 995.2
20260903235003 88 126 5.2 10.4 0.00 0.00 0.00 68 995.1
20260903234003 89 170 4.3 7.8 0.00 0.00 0.00 66 995.1
20260903233503 89 185 5.2 14.8 0.00 0.00 0.00 66 994.9
20260903233004 90 116 4.3 7.8 0.00 0.00 0.00 65 995.1
20260903232503 90 209 4.3 11.3 0.00 0.00 0.00 65 994.8
20260903232004 91 71 4.3 7.8 0.00 0.00 0.00 65 994.9
20260903231503 91 176 4.3 12.2 0.00 0.00 0.00 66 994.6
20260903231003 92 189 4.3 7.8 0.00 0.00 0.00 64 994.6
20260903230503 92 156 7.0 10.4 0.00 0.00 0.00 63 994.8
20260903230004 93 32 5.2 10.4 0.00 0.00 0.00 62 994.5
20260903225003 93 162 5.2 8.7 0.00 0.00 0.00 62 994.6
20260903224503 93 201 5.2 12.2 0.00 0.00 0.00 61 994.5
20260903223503 93 73 5.2 7.8 0.00 0.00 0.00 60 994.5
20260903223004 94 68 4.3 7.8 0.00 0.00 0.00 60 994.6
20260903222503 94 200 3.5 7.8 0.00 0.00 0.00 58 994.6
20260903222003 95 223 3.5 8.7 0.00 0.00 0.00 55 994.5
20260903221504 95 134 5.2 8.7 0.00 0.00 0.00 55 994.4
20260903221004 95 185 4.3 11.3 0.00 0.00 0.00 55 994.2
20260903220505 95 150 2.6 6.1 0.00 0.00 0.00 55 994.4
20260903220003 94 125 5.2 8.7 0.00 0.00 0.00 56 994.4
20260903215503 94 156 5.2 11.3 0.00 0.00 0.00 56 994.3
20260903215003 95 259 5.2 8.7 0.00 0.00 0.00 54 994.4
20260903214503 96 153 2.6 8.7 0.00 0.00 0.00 54 994.3
20260903214003 97 118 3.5 8.7 0.00 0.00 0.00 53 994.4
20260903213504 97 170 4.3 7.0 0.00 0.00 0.00 52 994.5
20260903213003 96 148 2.6 4.3 0.00 0.00 0.00 53 994.4
20260903212503 96 96 3.5 10.4 0.00 0.00 0.00 54 994.6
20260903212003 96 190 3.5 7.0 0.00 0.00 0.00 54 994.7
20260903211503 97 237 1.7 7.8 0.00 0.00 0.00 53 994.7
20260903211004 96 208 2.6 7.0 0.00 0.00 0.00 54 994.7
20260903210503 96 156 3.5 7.8 0.00 0.00 0.00 53 994.8
20260903210003 97 159 3.5 7.0 0.00 0.00 0.00 53 994.8
20260903205504 97 89 1.7 5.2 0.00 0.00 0.00 52 994.6
20260903204503 97 121 3.5 7.8 0.00 0.00 0.00 51 995.0
20260903204004 98 202 2.6 7.8 0.00 0.00 0.00 50 995.0
20260903203503 98 79 1.7 7.0 0.00 0.00 0.00 50 995.1
20260903202503 98 139 1.7 5.2 0.00 0.00 0.00 49 995.4
20260903202003 97 142 2.6 6.1 0.00 0.00 0.00 50 995.4
20260903201504 97 164 1.7 7.0 0.00 0.00 0.00 51 995.5
20260903201004 97 110 2.6 4.3 0.00 0.00 0.00 51 995.5
20260903200503 98 119 1.7 7.0 0.00 0.00 0.00 50 995.5
20260903200003 97 185 2.6 7.0 0.00 0.00 0.00 51 995.7
20260903195504 97 189 2.6 6.1 0.00 0.00 0.00 52 995.5
20260903195003 97 174 2.6 6.1 0.00 0.00 0.00 51 995.6
20260903194503 97 160 3.5 6.1 0.00 0.00 0.00 51 995.6
20260903194004 97 47 1.7 5.2 0.00 0.00 0.00 51 995.8
20260903193503 97 139 2.6 6.1 0.00 0.00 0.00 51 995.8
20260903193003 96 158 1.7 5.2 0.00 0.00 0.00 51 996.0
20260903192503 96 142 1.7 7.0 0.00 0.00 0.00 52 996.1
20260903191503 97 179 4.3 7.0 0.00 0.00 0.00 53 996.2
20260903191003 96 155 1.7 5.2 0.00 0.00 0.00 53 996.3
20260903190504 96 86 1.7 7.0 0.00 0.00 0.00 53 996.5
20260903185003 95 145 1.7 6.1 0.00 0.00 0.00 55 996.5
20260903184503 95 177 2.6 5.2 0.00 0.00 0.00 55 996.6
20260903184004 95 150 1.7 6.1 0.00 0.00 0.00 54 996.8
20260903183503 95 166 0.9 7.0 0.00 0.00 0.00 55 996.7
20260903182503 93 188 2.6 4.3 0.00 0.00 0.00 56 996.9
20260903182004 93 95 1.7 4.3 0.00 0.00 0.00 57 997.1
20260903181504 93 124 1.7 5.2 0.00 0.00 0.00 57 997.0
20260903181003 93 125 2.6 5.2 0.00 0.00 0.00 57 997.0
20260903180503 93 163 2.6 6.1 0.00 0.00 0.00 58 997.2
20260903180003 92 152 2.6 7.0 0.00 0.00 0.00 57 997.2
20260903175505 93 123 1.7 5.2 0.00 0.00 0.00 55 997.3
20260903174503 92 177 1.7 5.2 0.00 0.00 0.00 56 997.4
20260903174003 92 167 1.7 5.2 0.00 0.00 0.00 55 997.5
20260903173503 92 149 2.6 5.2 0.00 0.00 0.00 55 997.4
20260903173003 92 164 0.9 5.2 0.00 0.00 0.00 55 997.5
20260903172503 91 207 2.6 6.1 0.00 0.00 0.00 57 997.8
20260903172004 92 160 2.6 7.0 0.00 0.00 0.00 57 997.7
20260903171503 92 183 3.5 7.0 0.00 0.00 0.00 57 997.8
20260903171003 91 228 2.6 5.2 0.00 0.00 0.00 58 997.8
20260903170503 91 184 3.5 5.2 0.00 0.00 0.00 60 997.6
20260903170004 91 195 2.6 6.1 0.00 0.00 0.00 60 997.5
20260903165503 90 139 2.6 5.2 0.00 0.00 0.00 60 997.4
20260903165003 90 205 2.6 7.0 0.00 0.00 0.00 62 997.4
20260903164503 90 235 4.3 8.7 0.00 0.00 0.00 62 997.6
20260903164004 89 230 3.5 7.8 0.00 0.00 0.00 63 997.6
20260903163504 89 223 3.5 7.0 0.00 0.00 0.00 63 997.6
20260903163003 89 276 2.6 6.1 0.00 0.00 0.00 64 997.7
20260903162503 89 173 1.7 7.8 0.00 0.00 0.00 66 997.7
20260903162004 89 156 3.5 6.1 0.00 0.00 0.00 66 997.6
20260903161503 87 250 1.7 7.0 0.00 0.00 0.00 69 997.7
20260903161003 87 203 3.5 6.1 0.00 0.00 0.00 69 997.6
20260903160503 87 205 1.7 7.0 0.00 0.00 0.00 70 997.7
20260903160003 86 265 3.5 7.8 0.00 0.00 0.00 71 997.5
20260903155503 86 245 3.5 5.2 0.00 0.00 0.00 72 997.6
20260903155004 86 162 4.3 6.1 0.00 0.00 0.00 72 997.4
20260903154504 85 244 4.3 7.0 0.00 0.00 0.00 73 997.6
20260903154004 85 247 4.3 7.8 0.00 0.00 0.00 73 997.7
20260903153504 85 230 2.6 7.0 0.00 0.00 0.00 73 997.5
20260903153004 85 187 2.6 6.1 0.00 0.00 0.00 74 997.5
20260903152504 85 177 4.3 7.8 0.00 0.00 0.00 75 997.4
20260903152004 85 288 4.3 7.8 0.00 0.00 0.00 75 997.4
20260903151504 85 268 4.3 5.2 0.00 0.00 0.00 75 997.5
20260903151003 84 269 5.2 10.4 0.00 0.00 0.00 77 997.7
20260903150503 84 254 4.3 7.8 0.00 0.00 0.00 77 997.5
20260903145503 84 190 3.5 7.0 0.00 0.00 0.00 78 997.5
20260903145003 83 259 4.3 7.8 0.00 0.00 0.00 78 997.5
20260903144504 83 214 4.3 8.7 0.00 0.00 0.00 79 997.4
20260903143503 83 198 3.5 7.0 0.00 0.00 0.00 80 997.6
20260903142503 83 234 3.5 8.7 0.00 0.00 0.00 81 997.4
20260903142003 83 279 4.3 8.7 0.00 0.00 0.00 80 997.5
20260903141503 83 204 5.2 8.7 0.00 0.00 0.00 81 997.4
20260903141003 82 243 5.2 8.7 0.00 0.00 0.00 82 997.4
20260903140503 82 165 4.3 7.0 0.00 0.00 0.00 83 997.5
20260903140003 82 233 3.5 10.4 0.00 0.00 0.00 83 997.5
20260903135503 82 237 5.2 10.4 0.00 0.00 0.00 83 997.4
20260903135003 82 255 2.6 8.7 0.00 0.00 0.00 85 997.4
20260903134504 81 235 3.5 7.0 0.00 0.00 0.00 85 997.4
20260903134003 81 222 4.3 7.0 0.00 0.00 0.00 86 997.4
20260903133503 80 204 3.5 6.1 0.00 0.00 0.00 88 997.5
20260903133004 80 225 3.5 8.7 0.00 0.00 0.00 89 997.4
20260903132503 79 219 4.3 8.7 0.00 0.00 0.00 89 997.4
20260903131503 79 177 3.5 10.4 0.00 0.00 0.00 90 997.2
20260903131004 79 164 4.3 7.0 0.00 0.00 0.00 90 997.5
20260903130003 79 250 2.6 8.7 0.00 0.00 0.00 91 997.3
20260903125503 79 261 5.2 8.7 0.00 0.00 0.00 91 997.2
20260903125003 79 270 4.3 7.0 0.00 0.00 0.00 91 997.1
20260903124503 79 250 3.5 8.7 0.00 0.00 0.00 92 997.2
20260903124003 78 223 2.6 7.0 0.00 0.00 0.00 92 997.2
20260903123504 78 164 2.6 7.0 0.00 0.00 0.00 92 997.4
20260903123003 78 219 2.6 7.0 0.00 0.00 0.00 92 997.2
20260903122504 78 188 2.6 5.2 0.00 0.00 0.00 92 997.2
20260903122003 78 173 2.6 6.1 0.00 0.00 0.00 92 997.1
20260903121503 78 181 4.3 7.0 0.00 0.00 0.00 92 997.0
20260903121003 78 199 4.3 7.8 0.00 0.00 0.00 92 997.1
20260903120003 78 192 3.5 7.8 0.00 0.00 0.00 92 996.8
20260903115503 78 162 2.6 6.1 0.00 0.00 0.00 92 996.8
20260903115003 78 181 3.5 6.1 0.00 0.00 0.00 92 996.7
20260903114503 78 222 2.6 6.1 0.00 0.00 0.00 92 996.9
20260903114003 78 259 2.6 6.1 0.00 0.00 0.00 92 996.8
20260903113003 78 150 3.5 6.1 0.00 0.00 0.00 92 996.9
20260903112503 78 230 3.5 8.7 0.00 0.00 0.00 92 997.1
20260903111503 78 159 4.3 6.1 0.00 0.00 0.00 92 996.8
20260903111003 78 170 4.3 6.1 0.00 0.00 0.00 92 996.8
20260903110004 78 175 4.3 7.0 0.00 0.00 0.00 92 996.7
20260903105503 78 197 2.6 7.0 0.00 0.00 0.00 92 996.7
20260903104503 78 225 2.6 6.1 0.00 0.00 0.00 92 996.6
20260903104003 78 192 2.6 7.0 0.00 0.00 0.00 91 996.6
20260903103503 78 163 4.3 8.7 0.00 0.00 0.00 91 996.6
20260903103003 78 213 4.3 7.0 0.00 0.00 0.00 91 996.6
20260903102003 78 181 2.6 6.1 0.00 0.00 0.00 91 996.7
20260903101503 78 195 3.5 6.1 0.00 0.00 0.00 91 996.6
20260903100503 79 249 2.6 5.2 0.00 0.00 0.00 91 996.5
20260903100004 79 157 2.6 6.1 0.00 0.00 0.00 90 996.5
20260903095504 79 249 5.2 7.8 0.00 0.00 0.00 90 996.3
20260903094503 79 241 3.5 7.8 0.00 0.00 0.00 90 996.6
20260903093503 79 259 4.3 8.7 0.00 0.00 0.00 90 996.8
20260903093003 79 259 4.3 8.7 0.00 0.00 0.00 90 996.7
20260903092503 79 169 2.6 10.4 0.00 0.00 0.00 89 996.8
20260903091003 79 212 2.6 7.8 0.00 0.00 0.00 89 996.7
20260903090503 79 200 4.3 7.8 0.00 0.00 0.00 89 996.7
20260903090003 79 170 5.2 7.8 0.00 0.00 0.00 89 996.9
20260903085503 79 174 4.3 7.0 0.00 0.00 0.00 88 996.9
20260903085003 79 258 2.6 7.0 0.00 0.00 0.00 88 996.8
20260903084504 79 181 4.3 7.0 0.00 0.00 0.00 88 996.9
20260903084004 79 176 4.3 7.0 0.00 0.00 0.00 87 996.8
20260903083503 79 201 4.3 7.0 0.00 0.00 0.00 87 997.0
20260903082003 80 177 2.6 8.7 0.00 0.00 0.00 86 996.8
20260903081503 80 154 3.5 6.1 0.00 0.00 0.00 85 996.8
20260903081004 80 207 4.3 6.1 0.00 0.00 0.00 85 996.9
20260903080003 80 196 2.6 7.0 0.00 0.00 0.00 84 996.8
20260903075003 80 181 3.5 6.1 0.00 0.00 0.00 83 996.9
20260903074503 80 187 2.6 6.1 0.00 0.00 0.00 83 996.9
20260903074004 80 183 2.6 5.2 0.00 0.00 0.00 82 997.1
20260903073503 80 214 4.3 6.1 0.00 0.00 0.00 82 996.9
20260903073003 80 193 3.5 7.8 0.00 0.00 0.00 81 997.0
20260903072003 80 185 5.2 8.7 0.00 0.00 0.00 81 997.0
20260903071004 81 189 4.3 6.1 0.00 0.00 0.00 80 997.2
20260903070503 81 156 4.3 6.1 0.00 0.00 0.00 80 997.1
20260903070004 81 177 3.5 7.8 0.00 0.00 0.00 79 997.1
20260903065503 81 161 4.3 7.8 0.00 0.00 0.00 78 997.1
20260903064004 81 201 4.3 6.1 0.00 0.00 0.00 77 997.3
20260903063503 81 174 5.2 7.8 0.00 0.00 0.00 77 997.4
20260903063003 80 201 3.5 6.1 0.00 0.00 0.00 78 997.1
20260903062003 80 212 1.7 5.2 0.00 0.00 0.00 81 997.5